When you browse on this site, cookies collect data to enhance your experience and personalize the content and advertising you see.
Visit our Privacy Policy to learn more. By continuing to use the site, you agree to this use of cookies and data.
  • In Spain
  • List of Countries
  • For 7 days
  • Water Temperature
  • Weather Map
  • Weather Widgets
  • user-avatar
    Login

    Hourly Weather Luanda

    Today, 19 October, Saturday

    Time Temperature Precipitation Wind Pressure Humidity
    00:00 +27°C° 0 mm 4 mps 753 mmHg 82%
    01:00 +26°C° 0 mm 3 mps 753 mmHg 84%
    02:00 +26°C° 0 mm 3 mps 753 mmHg 85%
    03:00 +26°C° 0 mm 3 mps 752 mmHg 86%
    04:00 +26°C° 0 mm 3 mps 752 mmHg 86%
    05:00 +26°C° 0 mm 3 mps 753 mmHg 84%
    06:00 +26°C° 0 mm 3 mps 753 mmHg 81%
    07:00 +27°C° 0 mm 3 mps 754 mmHg 79%
    08:00 +28°C° 0 mm 2 mps 754 mmHg 72%
    09:00 +30°C° 0 mm 2 mps 754 mmHg 65%
    10:00 +31°C° 0 mm 1 mps 754 mmHg 58%
    11:00 +32°C° 0 mm 2 mps 753 mmHg 56%
    12:00 +34°C° 0 mm 4 mps 753 mmHg 53%
    13:00 +34°C° 0 mm 5 mps 752 mmHg 51%
    14:00 +34°C° 0 mm 5 mps 751 mmHg 54%
    15:00 +33°C° 0 mm 5 mps 751 mmHg 57%
    16:00 +32°C° 0 mm 6 mps 750 mmHg 61%
    17:00 +29°C° 0 mm 5 mps 751 mmHg 66%
    18:00 +28°C° 0 mm 5 mps 751 mmHg 71%
    19:00 +27°C° 0 mm 4 mps 752 mmHg 76%
    20:00 +27°C° 0 mm 4 mps 753 mmHg 77%
    21:00 +27°C° 0 mm 3 mps 753 mmHg 78%
    22:00 +27°C° 0 mm 3 mps 753 mmHg 79%
    23:00 +27°C° 0 mm 3 mps 753 mmHg 80%

    Tomorrow, 20 October, Sunday

    Time Temperature Precipitation Wind Pressure Humidity
    00:00 +26°C° 0 mm 3 mps 753 mmHg 80%
    01:00 +26°C° 0 mm 3 mps 753 mmHg 81%
    02:00 +26°C° 0 mm 3 mps 753 mmHg 82%
    03:00 +26°C° 0 mm 3 mps 753 mmHg 82%
    04:00 +26°C° 0 mm 3 mps 753 mmHg 83%
    05:00 +26°C° 0 mm 3 mps 753 mmHg 80%
    06:00 +27°C° 0 mm 2 mps 754 mmHg 77%
    07:00 +27°C° 0 mm 2 mps 755 mmHg 73%
    08:00 +28°C° 0 mm 2 mps 754 mmHg 67%
    09:00 +30°C° 0 mm 2 mps 754 mmHg 61%
    10:00 +31°C° 0 mm 2 mps 754 mmHg 55%
    11:00 +32°C° 0 mm 2 mps 753 mmHg 54%
    12:00 +33°C° 0 mm 3 mps 753 mmHg 52%
    13:00 +34°C° 0 mm 3 mps 752 mmHg 51%
    14:00 +33°C° 0 mm 4 mps 752 mmHg 54%
    15:00 +32°C° 0 mm 4 mps 751 mmHg 56%
    16:00 +32°C° 0 mm 5 mps 750 mmHg 59%
    17:00 +30°C° 0 mm 5 mps 751 mmHg 64%
    18:00 +29°C° 0 mm 4 mps 752 mmHg 69%
    19:00 +28°C° 0 mm 4 mps 752 mmHg 74%
    20:00 +28°C° 0 mm 4 mps 753 mmHg 75%
    21:00 +27°C° 0 mm 4 mps 753 mmHg 76%
    22:00 +27°C° 0 mm 3 mps 754 mmHg 78%
    23:00 +27°C° 0 mm 3 mps 754 mmHg 79%

    Day after tomorrow, 21 October, Monday

    Time Temperature Precipitation Wind Pressure Humidity
    00:00 +27°C° 0 mm 3 mps 753 mmHg 80%
    01:00 +26°C° 0 mm 2 mps 753 mmHg 81%
    02:00 +26°C° 0 mm 3 mps 753 mmHg 80%
    03:00 +26°C° 0 mm 3 mps 753 mmHg 80%
    04:00 +26°C° 0 mm 4 mps 753 mmHg 79%
    05:00 +27°C° 0 mm 3 mps 753 mmHg 77%
    06:00 +27°C° 0 mm 3 mps 754 mmHg 75%
    07:00 +27°C° 0 mm 3 mps 754 mmHg 72%
    08:00 +29°C° 0 mm 3 mps 754 mmHg 66%
    09:00 +30°C° 0 mm 2 mps 754 mmHg 60%
    10:00 +32°C° 0 mm 2 mps 754 mmHg 53%
    11:00 +34°C° 0 mm 3 mps 753 mmHg 51%
    12:00 +34°C° 0 mm 3 mps 752 mmHg 49%
    13:00 +35°C° 0 mm 4 mps 752 mmHg 47%
    14:00 +34°C° 0 mm 5 mps 751 mmHg 51%
    15:00 +33°C° 0 mm 5 mps 751 mmHg 55%
    16:00 +32°C° 0 mm 6 mps 750 mmHg 59%
    17:00 +30°C° 0 mm 5 mps 751 mmHg 64%
    18:00 +29°C° 0 mm 5 mps 751 mmHg 69%
    19:00 +28°C° 0 mm 4 mps 752 mmHg 74%
    20:00 +27°C° 0 mm 4 mps 752 mmHg 75%
    21:00 +27°C° 0 mm 4 mps 753 mmHg 77%
    22:00 +27°C° 0 mm 3 mps 753 mmHg 78%
    23:00 +27°C° 0 mm 3 mps 753 mmHg 79%

    22 October, Tuesday

    Time Temperature Precipitation Wind Pressure Humidity
    00:00 +27°C° 0 mm 3 mps 753 mmHg 80%
    01:00 +26°C° 0 mm 3 mps 753 mmHg 81%
    02:00 +26°C° 0.1 mm 3 mps 753 mmHg 81%
    03:00 +26°C° 0.1 mm 4 mps 753 mmHg 81%
    04:00 +27°C° 0.1 mm 4 mps 753 mmHg 80%
    05:00 +27°C° 0.1 mm 4 mps 753 mmHg 79%
    06:00 +27°C° 0.1 mm 4 mps 753 mmHg 78%
    07:00 +27°C° 0.1 mm 4 mps 754 mmHg 76%
    08:00 +28°C° 0 mm 4 mps 754 mmHg 70%
    09:00 +29°C° 0 mm 3 mps 754 mmHg 65%
    10:00 +31°C° 0 mm 3 mps 754 mmHg 59%
    11:00 +32°C° 0 mm 4 mps 753 mmHg 57%
    12:00 +32°C° 0 mm 4 mps 753 mmHg 56%
    13:00 +33°C° 0 mm 4 mps 752 mmHg 54%
    14:00 +32°C° 0 mm 5 mps 751 mmHg 56%
    15:00 +32°C° 0 mm 5 mps 751 mmHg 58%
    16:00 +32°C° 0 mm 5 mps 750 mmHg 59%
    17:00 +30°C° 0 mm 5 mps 751 mmHg 65%
    18:00 +28°C° 0 mm 5 mps 751 mmHg 70%
    19:00 +27°C° 0 mm 4 mps 752 mmHg 76%
    20:00 +27°C° 0 mm 4 mps 752 mmHg 77%
    21:00 +27°C° 0 mm 4 mps 753 mmHg 78%
    22:00 +27°C° 0 mm 3 mps 753 mmHg 80%
    23:00 +27°C° 0 mm 3 mps 753 mmHg 79%

    23 October, Wednesday

    Time Temperature Precipitation Wind Pressure Humidity
    00:00 +27°C° 0 mm 3 mps 752 mmHg 79%
    01:00 +27°C° 0 mm 2 mps 752 mmHg 78%
    02:00 +27°C° 0 mm 2 mps 752 mmHg 77%
    03:00 +27°C° 0 mm 2 mps 752 mmHg 76%
    04:00 +27°C° 0 mm 3 mps 751 mmHg 75%
    05:00 +27°C° 0 mm 3 mps 752 mmHg 73%
    06:00 +27°C° 0 mm 2 mps 752 mmHg 72%
    07:00 +27°C° 0 mm 2 mps 753 mmHg 71%
    08:00 +28°C° 0 mm 3 mps 753 mmHg 66%
    09:00 +30°C° 0 mm 3 mps 753 mmHg 60%
    10:00 +31°C° 0 mm 3 mps 753 mmHg 55%
    11:00 +33°C° 0 mm 4 mps 752 mmHg 52%
    12:00 +34°C° 0 mm 4 mps 751 mmHg 49%
    13:00 +35°C° 0 mm 5 mps 751 mmHg 46%
    14:00 +34°C° 0 mm 5 mps 750 mmHg 50%
    15:00 +32°C° 0 mm 5 mps 750 mmHg 54%
    16:00 +30°C° 0 mm 5 mps 750 mmHg 59%
    17:00 +29°C° 0 mm 5 mps 750 mmHg 64%
    18:00 +28°C° 0 mm 5 mps 751 mmHg 70%
    19:00 +27°C° 0 mm 5 mps 751 mmHg 75%
    20:00 +27°C° 0 mm 5 mps 752 mmHg 74%
    21:00 +27°C° 0 mm 4 mps 752 mmHg 74%
    22:00 +27°C° 0 mm 3 mps 753 mmHg 73%
    23:00 +27°C° 0 mm 3 mps 753 mmHg 74%

    24 October, Thursday

    Time Temperature Precipitation Wind Pressure Humidity
    00:00 +27°C° 0 mm 3 mps 752 mmHg 74%
    01:00 +27°C° 0 mm 3 mps 752 mmHg 74%
    02:00 +27°C° 0 mm 3 mps 752 mmHg 73%
    03:00 +27°C° 0 mm 3 mps 752 mmHg 73%
    04:00 +27°C° 0 mm 3 mps 752 mmHg 72%
    05:00 +27°C° 0 mm 3 mps 752 mmHg 70%
    06:00 +27°C° 0 mm 2 mps 752 mmHg 67%
    07:00 +28°C° 0 mm 2 mps 753 mmHg 65%
    08:00 +29°C° 0 mm 1 mps 753 mmHg 59%
    09:00 +31°C° 0 mm 1 mps 753 mmHg 53%
    10:00 +32°C° 0 mm 1 mps 753 mmHg 47%
    11:00 +34°C° 0 mm 2 mps 752 mmHg 45%
    12:00 +35°C° 0 mm 3 mps 752 mmHg 43%
    13:00 +36°C° 0 mm 4 mps 751 mmHg 41%
    14:00 +35°C° 0 mm 4 mps 751 mmHg 44%
    15:00 +34°C° 0 mm 4 mps 750 mmHg 48%
    16:00 +33°C° 0 mm 5 mps 750 mmHg 52%
    17:00 +32°C° 0.2 mm 4 mps 751 mmHg 57%
    18:00 +30°C° 0.2 mm 3 mps 751 mmHg 62%
    19:00 +28°C° 0.2 mm 3 mps 751 mmHg 68%
    20:00 +28°C° 0 mm 4 mps 752 mmHg 70%
    21:00 +28°C° 0 mm 5 mps 752 mmHg 71%
    22:00 +28°C° 0 mm 6 mps 753 mmHg 73%
    23:00 +27°C° 0 mm 5 mps 753 mmHg 74%
    Show more